Overview Statistics Trail Chart Weather Telemetry Raw packets
 

This is the latest recevied weather packets stored in our database for station/object IU3OVK-13. If no packets are shown the sender has not sent any weather packets the latest 10 day(s).

<< 6 7 8 9 10 11 12 >>
Time Temp. Humidity Pressure Rain* Wind** Luminosity Snow
1788487825 18.33° C 99% 1012.3 hPa - - - -
1788487204 18.33° C 99% 1012.3 hPa - - - -
1788486584 18.33° C 99% 1012.1 hPa - - - -
1788485964 18.33° C 99% 1012.2 hPa - - - -
1788485344 18.89° C 99% 1011.9 hPa - - - -
1788484724 18.33° C 99% 1012.2 hPa - - - -
1788484103 18.89° C 99% 1012 hPa - - - -
1788483483 18.89° C 99% 1012.3 hPa - - - -
1788482863 19.44° C 99% 1012 hPa - - - -
1788482282 19.44° C 99% 1012 hPa - - - -
1788482243 19.44° C 99% 1012 hPa - - - -
1788481623 19.44° C 99% 1011.8 hPa - - - -
1788481003 19.44° C 99% 1012.1 hPa - - - -
1788480382 19.44° C 99% 1012 hPa - - - -
1788479762 19.44° C 99% 1011.8 hPa - - - -
1788479142 19.44° C 99% 1011.8 hPa - - - -
1788478522 19.44° C 99% 1011.8 hPa - - - -
1788469663 21.67° C 99% 1012.7 hPa - - - -
1788468422 21.67° C 99% 1012.2 hPa - - - -
1788467802 22.22° C 99% 1012.8 hPa - - - -
1788467182 22.78° C 99% 1013.2 hPa - - - -
1788466562 23.33° C 99% 1012.6 hPa - - - -
1788465941 23.33° C 99% 1013 hPa - - - -
1788465322 23.89° C 99% 1012.3 hPa - - - -
1788464701 23.89° C 99% 1012.3 hPa - - - -

* Rain since midnight (hover to see other rain measurements)
** Current wind speed in m/s (hover to see current wind gust speed)